Weather Roundup
Issued by NWS Chicago, IL

Home | Current Version | Previous Version | Graphics & Text | Print | Product List | Glossary On
Versions: 1 2 3 4 5 6 7 8 9 10 11 12 13 14 15 16 17 18 19 20 21 22 23 24 25 26 27 28 29 30 31 32 33 34 35 36 37 38 39 40 41 42 43 44 45 46 47 48 49 50
000
NZUS59 KLOT 041758
HRRLOT

CHICAGO AREA WEATHER ROUNDUP
NATIONAL WEATHER SERVICE CHICAGO/ROMEOVILLE IL
1200 PM CST SUN DEC 04 2016

NOTE: "FAIR" INDICATES FEW OR NO CLOUDS BELOW 12,000 FEET WITH NO
SIGNIFICANT WEATHER AND/OR OBSTRUCTIONS TO VISIBILITY.

* THESE STATIONS ARE NOT UNDER NWS QUALITY CONTROL. THEY ALSO MAY NOT
  REPORT WEATHER SUCH AS PRECIPITATION OR FOG.

ILZ005-006-012>014-019>023-041900-
NORTHEAST ILLINOIS

CITY           SKY/WX    TMP DP  RH WIND       PRES   REMARKS
OHARE          SNOW      31  30  96 SE5       30.03F VSB 1/4 WCI  26
6HR MIN TEMP:  31; 6HR MAX TEMP:  33; 6HR PCP:  0.08;

MIDWAY         NOT AVBL
AURORA         NOT AVBL
WAUKEGAN       SNOW      33  32  96 CALM      30.02F VSB 1/4
DUPAGE AIRPORT HVY SNOW  30  28  93 E5        30.02F VSB 1/4 WCI  25
WHEELING       NOT AVBL
NORTHERLY ISL    N/A     33  30  89 SE3         N/A
$$

WIZ051-052-058>065-066-070>072-041900-
SOUTHEAST WISCONSIN

CITY           SKY/WX    TMP DP  RH WIND       PRES   REMARKS
MILWAUKEE      LGT SNOW  36  29  75 S5        30.02F
KENOSHA*       SNOW      34  30  86 SW3       30.02F VSB 1/4
RACINE*        LGT SNOW  34  30  86 CALM      30.03F VSB 1
WAUKESHA       LGT SNOW  28  28 100 SE5       30.01F VSB 1   WCI  23
$$

INZ001>003-010>013-019-020-041900-
NORTHWEST INDIANA

CITY           SKY/WX    TMP DP  RH WIND       PRES   REMARKS
GARY*          NOT AVBL
MICHIGAN CITY* NOT AVBL
RENSSELAER*    NOT AVBL
VALPARAISO     LGT SNOW  34  31  88 SE8       30.04F VSB 3/4 WCI  27
$$

LMZ740>746-041900-
SOUTHERN LAKE MICHIGAN

STATION/POSITION TIME  SKY/WX   TEMP WIND        PRES    VSBY
                                AIR  DIR/SP/G
                 (UTC)          (F)  (DEG/KT/KT) (MB)    (MI)
HARRISON CRIB    1710            36  170/  9/ 12   N/A
BURNHAM HARBOR   1745            33  170/  2/ 10   N/A
CALUMET HARBOR   1730            33  170/  4/  5 1017.0F
BURNS HARBOR     1740            34  150/  4/  7 1017.9F
MICHIGAN CITY    NOT AVBL
$$

ABBREVIATIONS USED IN REMARKS
   TC - TEMPERATURE IN CELSIUS
  WCI - WIND CHILL INDEX
   HX - HEAT INDEX
  VSB - VISIBILITY
$$



USA.gov is the U.S. government's official web portal to all federal, state and local government web resources and services.